Location: Mannheim
(49.4880°N, 8.4650°E)
Time: 06:25:46
(UTC+02:00)

ACS3 Solar Sail - Pass Details

Date: 27 September 2024
Orbit: 963 x 1036 km, 97.4° (Epoch: 04 October)

Event Time Altitude Azimuth Distance (km) Brightness Sun altitude
Exits shadow 21:12:26 20° 157° (SSE) 2,178 3.2 -19.9°
Maximum altitude 21:17:04 78° 74° (ENE) 1,060 1.8 -20.6°
Drops below altitude 10° 21:23:29 10° 349° (N) 2,829 4.6 -21.6°
Sets 21:25:58 0° 349° (NNW) 3,776 5.4 -22.0°
